Pella, IA

11:03 AM CDT on April 30, 2017 (GMT -0500)
Pella Municipal

Weather History for KPEA - February, 2014

Change the Weather History Date:

Thursday, February 20, 2014

  Actual Average (KOXV) Record (KOXV)
Temperature  
Mean Temperature 32 °F -  
Max Temperature 37 °F 40 °F 65 °F (1981)
Min Temperature 28 °F 22 °F -7 °F (2008)
Degree Days  
Heating Degree Days 32    
Moisture  
Dew Point 34 °F    
Average Humidity 96    
Maximum Humidity 100    
Minimum Humidity 81    
Precipitation  
Precipitation 0.02 in - - ()
Sea Level Pressure  
Sea Level Pressure 29.51 in    
Wind  
Wind Speed 7 mph (West)    
Max Wind Speed 28 mph    
Max Gust Speed 38 mph    
Visibility 4 miles    
Events Fog , Rain , Snow    
Averages and records for this station are not official NWS values.
T = Trace of Precipitation, MM = Missing Value Source: NWS Daily Summary

Daily Weather History Graph

Daily Weather History Graph

Search for Another Location

Airport or City:

Trip Planner

Search our weather history database for the weather conditions in past years. The results will help you decide how hot, cold, wet, or windy it might be!

Date:

Astronomy

Feb. 20, 2014 Rise Set
Actual Time 6:59 AM CST 5:51 PM CST
Civil Twilight 6:31 AM CST 6:19 PM CST
Nautical Twilight 5:59 AM CST 6:52 PM CST
Astronomical Twilight 5:27 AM CST 7:24 PM CST
Moon 11:51 PM CST (2/20) 9:38 AM CST (2/20)
Length of Visible Light 11h 48m
Length of Day
10h 52m
Waning Gibbous, 70% of the Moon is Illuminated
Feb 20
Waning Gibbous
Feb 22
Last Quarter
Mar 1
New
Mar 8
First Quarter
Mar 16
Full

Hourly Weather History & Observations

Time (CST) Temp. Windchill Dew Point Humidity Pressure Visibility Wind Dir Wind Speed Gust Speed Precip Events Conditions
12:15 AM 36.7 °F - 35.2 °F 95% 29.71 in 7.0 mi Calm Calm - N/A   Drizzle
12:25 AM 35.6 °F - 35.6 °F 100% 29.70 in 7.0 mi Calm Calm - N/A Rain Light Rain
12:35 AM 35.8 °F - 34.9 °F 97% 29.70 in 7.0 mi Calm Calm - N/A Rain Light Rain
12:45 AM 35.6 °F - 35.6 °F 100% 29.69 in 5.0 mi Calm Calm - N/A Rain Rain
12:55 AM 35.6 °F - 34.9 °F 97% 29.70 in 5.0 mi Calm Calm - N/A   Drizzle
1:10 AM 35.6 °F 29.9 °F 35.6 °F 100% 29.69 in 4.0 mi ESE 6.9 mph - N/A Rain Rain
1:15 AM 35.8 °F 33.0 °F 35.1 °F 97% 29.69 in 3.0 mi ESE 3.5 mph - N/A Rain Rain
1:55 AM 36.1 °F 30.6 °F 35.6 °F 98% 29.65 in 2.5 mi ESE 6.9 mph - 0.01 in Rain Rain
2:10 AM 36.1 °F 32.3 °F 35.8 °F 99% 29.64 in 3.0 mi ESE 4.6 mph - N/A Rain Rain
2:35 AM 36.0 °F 31.1 °F 35.6 °F 99% 29.63 in 2.5 mi ESE 5.8 mph - N/A Rain Rain
2:38 AM 35.6 °F - 35.6 °F 100% 29.63 in 2.5 mi Calm Calm - N/A Rain Rain
3:15 AM 35.8 °F 30.1 °F 35.6 °F 99% 29.61 in 1.8 mi ESE 6.9 mph - N/A Rain Rain
3:54 AM 37.4 °F 30.3 °F 37.4 °F 100% 29.57 in 4.0 mi SE 10.4 mph 16.1 mph N/A Rain Light Rain
3:55 AM 37.6 °F 30.0 °F 37.4 °F 99% 29.57 in 4.0 mi SE 11.5 mph 16.1 mph N/A Rain Light Rain
4:15 AM 36.9 °F 30.1 °F 36.7 °F 99% 29.57 in 3.0 mi SE 9.2 mph 16.1 mph N/A Rain Light Rain
4:35 AM 36.7 °F 29.4 °F 36.5 °F 99% 29.57 in 3.0 mi SE 10.4 mph - N/A   Overcast
5:15 AM 36.5 °F - 36.5 °F 100% 29.54 in 2.0 mi Calm Calm - N/A   Overcast
5:55 AM 35.8 °F - 35.8 °F 100% 29.52 in 0.8 mi Calm Calm - N/A   Overcast
6:06 AM 35.6 °F - 35.6 °F 100% 29.52 in 1.0 mi Calm Calm - N/A   Overcast
6:15 AM 35.8 °F - 35.8 °F 100% 29.52 in 1.2 mi Calm Calm - N/A   Overcast
6:50 AM 35.8 °F - 35.8 °F 100% 29.51 in 1.2 mi Calm Calm - N/A   Overcast
7:35 AM 35.6 °F - 35.6 °F 100% 29.51 in 0.8 mi Calm Calm - N/A   Overcast
8:15 AM 35.6 °F - 35.6 °F 100% 29.53 in 0.8 mi Calm Calm - N/A Rain Light Rain
8:55 AM 35.2 °F - 35.2 °F 100% 29.45 in 0.2 mi Calm Calm - N/A Fog Fog
9:15 AM 35.2 °F - 35.2 °F 100% 29.46 in 0.2 mi Calm Calm - N/A Fog Fog
9:35 AM 35.6 °F - 35.6 °F 100% 29.44 in 0.2 mi Calm Calm - N/A   Drizzle
9:55 AM 36.1 °F 30.6 °F 36.1 °F 100% 29.38 in 0.2 mi East 6.9 mph - N/A Fog Fog
10:15 AM 36.0 °F 29.0 °F 36.0 °F 100% 29.35 in 0.2 mi East 9.2 mph - N/A Fog Fog
10:35 AM 36.5 °F 28.7 °F 36.5 °F 100% 29.34 in 0.2 mi East 11.5 mph 17.3 mph N/A Fog Fog
10:55 AM 36.1 °F - 36.1 °F 100% 29.30 in 0.2 mi Calm Calm - N/A Fog Fog
11:55 AM 36.5 °F - 36.5 °F 100% 29.26 in 0.5 mi Calm Calm - N/A Rain Rain
12:15 PM 35.6 °F 29.9 °F 35.6 °F 100% 29.26 in 0.8 mi NW 6.9 mph - N/A Rain Rain
12:25 PM 35.6 °F 27.5 °F 35.6 °F 100% 29.23 in 0.5 mi NNW 11.5 mph 26.5 mph 0.01 in Snow Light Snow
1:05 PM 33.8 °F 26.4 °F 33.8 °F 100% 29.25 in 1.8 mi North 9.2 mph - N/A Rain Rain
2:14 PM 33.8 °F - 33.8 °F 100% 29.22 in 2.5 mi Calm Calm - N/A Rain Light Rain
2:35 PM 33.8 °F - 33.8 °F 100% 29.22 in 3.0 mi Calm Calm - N/A Snow Light Snow
4:08 PM 33.8 °F 24.3 °F 33.8 °F 100% 29.32 in 0.5 mi WNW 13.8 mph 18.4 mph N/A Snow Light Snow
5:15 PM 33.3 °F 20.1 °F 33.1 °F 99% 29.38 in 1.2 mi WNW 26.5 mph 34.5 mph N/A Snow Light Snow
5:55 PM 33.4 °F 20.8 °F 32.9 °F 98% 29.43 in 2.0 mi West 24.2 mph 38.0 mph N/A Snow Light Snow
6:15 PM 33.8 °F 21.0 °F 33.1 °F 97% 29.46 in 7.0 mi West 25.3 mph 35.7 mph N/A Snow Light Snow
6:35 PM 34.0 °F 21.0 °F 32.9 °F 96% 29.48 in 4.0 mi West 26.5 mph 36.8 mph N/A Snow Light Snow
6:55 PM 34.0 °F 21.3 °F 32.4 °F 94% 29.49 in 10.0 mi West 25.3 mph 34.5 mph N/A Snow Light Snow
7:15 PM 34.3 °F 22.9 °F 32.0 °F 91% 29.50 in 10.0 mi West 20.7 mph 33.4 mph N/A   Mostly Cloudy
7:35 PM 34.7 °F 21.8 °F 32.2 °F 91% 29.50 in 10.0 mi West 27.6 mph 34.5 mph N/A   Overcast
7:55 PM 34.5 °F 21.5 °F 31.8 °F 90% 29.51 in 10.0 mi West 27.6 mph 34.5 mph N/A   Mostly Cloudy
8:15 PM 34.2 °F 21.8 °F 32.0 °F 92% 29.51 in 10.0 mi West 24.2 mph 32.2 mph N/A   Scattered Clouds
8:35 PM 33.8 °F 21.6 °F 30.7 °F 89% 29.52 in 10.0 mi West 23.0 mph 31.1 mph N/A   Mostly Cloudy
8:55 PM 33.8 °F 21.3 °F 28.6 °F 81% 29.53 in 10.0 mi West 24.2 mph 33.4 mph N/A   Mostly Cloudy
9:15 PM 33.1 °F 20.6 °F 28.4 °F 83% 29.54 in 10.0 mi West 23.0 mph 34.5 mph N/A   Mostly Cloudy
9:35 PM 32.4 °F 20.0 °F 27.9 °F 83% 29.55 in 7.0 mi West 21.9 mph 33.4 mph N/A Snow Light Snow
9:55 PM 32.0 °F 20.5 °F 27.9 °F 85% 29.56 in 7.0 mi West 18.4 mph 29.9 mph N/A Snow Light Snow
10:15 PM 31.8 °F 19.9 °F 28.0 °F 86% 29.57 in 5.0 mi West 19.6 mph 29.9 mph N/A Snow Light Snow
10:35 PM 30.7 °F 18.1 °F 27.5 °F 88% 29.57 in 4.0 mi WNW 20.7 mph 28.8 mph N/A Snow Light Snow
10:55 PM 30.0 °F 16.6 °F 27.3 °F 90% 29.58 in 2.0 mi West 23.0 mph 31.1 mph N/A Snow Light Snow
11:15 PM 28.9 °F 17.3 °F 27.0 °F 92% 29.58 in 1.8 mi West 16.1 mph 21.9 mph N/A Snow Light Snow
11:35 PM 28.4 °F 15.8 °F 26.2 °F 92% 29.58 in 2.0 mi West 18.4 mph 25.3 mph N/A Snow Light Snow
11:55 PM 28.0 °F 13.3 °F 23.9 °F 84% 29.58 in 4.0 mi WNW 25.3 mph 36.8 mph N/A Snow Light Snow